User: anonymous   Login
Location: Aula-Vintri
(58.3875°N, 22.4322°E)
Time: 13:01:34
(UTC+00:00)
Language:

ARGOS - Orbit

View from above orbital plane
View from above orbital plane
View from above satellite
View from above satellite

Ground track
Ground track

The orbit data is extracted from the following two-line orbital elements,

1 25634U 99008A   19347.16215678 -.00000002  00000-0  18870-4 0  9997
2 25634  98.4898  28.9904 0011329 100.0799 260.1656 14.19363650 77404
Epoch (UTC): 13 December 2019 03:53:30
Eccentricity: 0.0011329
inclination: 98.4898°
perigee height: 819 km
apogee height: 835 km
right ascension of ascending node: 28.9904°
argument of perigee: 100.0799°
revolutions per day: 14.19363650
mean anomaly at epoch: 260.1656°
orbit number at epoch: 7740

The dashed part of the orbit path shows where the satellite is in the earth's shadow,  

DLR